Location: Stamford Observatory
(41.1241°N, 73.5498°W)
Time: 15:53:14
(UTC-04:00)

Daily predictions for brighter satellites

Satellite Brightness Start Highest point End
(mag) Time Altitude Azimuth Time Altitude Azimuth Time Altitude Azimuth
Resurs 1-3 3.8 20:55:55 10° S 21:00:17 76° WSW 21:04:42 10° NNW
GENESIS II 4.2 20:56:48 10° SSW 21:00:41 86° ESE 21:04:37 10° NE
Cosmos 1812 Rocket 4.0 20:56:26 10° NNW 21:00:44 64° W 21:05:04 10° S
Meteor 2-5 Rocket 3.9 20:55:10 10° S 21:01:03 67° E 21:06:54 10° NNE
In-Cosmos 22 4.5 20:56:28 10° SSE 21:01:48 51° E 21:07:17 10° NNE
Iridium 4 Rocket 3.8 20:58:42 10° SSE 21:04:11 58° E 21:09:18 10° N
Meteor 1-16 Rocket 4.3 21:02:44 10° N 21:08:20 89° E 21:14:05 10° S
Cosmos 1953 Rocket 3.8 21:05:25 10° S 21:09:38 52° E 21:13:55 10° NNE
ERS-1 Rocket 4.2 21:07:19 10° ESE 21:11:33 28° ENE 21:15:46 10° N
Cosmos 1758 Rocket 3.5 21:10:20 10° S 21:14:46 76° E 21:19:10 10° N
Cosmos 1437 3.1 21:13:46 10° N 21:16:50 44° ENE 21:19:53 10° SSE
USA 215 3.4 21:11:57 10° SE 21:18:30 79° SW 21:25:07 10° NW
OE (NEXTSAT) 4.5 21:15:09 10° WNW 21:18:40 66° SSW 21:21:55 12° SE
Cosmos 1674 3.6 21:16:07 10° SSE 21:19:30 31° E 21:22:55 10° NNE
NOSS 3-4 (A) 4.5 21:21:31 10° SSE 21:26:13 23° ESE 21:31:02 10° ENE
Terra 3.9 21:24:58 10° E 21:27:01 13° ENE 21:29:04 10° NE
Resurs 01 Rocket 2.9 21:24:13 10° SSW 21:28:22 39° W 21:32:32 10° NNW
Cosmos 1726 3.4 21:26:56 10° NNE 21:30:10 27° ENE 21:32:39 14° SE
ERS-2 3.3 21:27:41 10° S 21:31:09 40° W 21:34:40 10° NNW
Cosmos 921 Rocket 3.3 21:28:29 10° N 21:32:56 58° ENE 21:36:46 14° SSE
OAO 3 Rocket 3.8 21:29:08 10° WSW 21:33:46 40° S 21:37:43 13° ESE
SL-8 R/B 3.8 21:36:19 10° WSW 21:41:08 80° NNW 21:46:00 10° ENE
ARGOS 3.2 21:36:30 10° SSE 21:41:55 89° ENE 21:47:23 10° NNW
Cosmos 2278 Rocket 3.1 21:37:09 10° SSE 21:41:56 29° ESE 21:46:45 10° NE
Cosmos 1315 Rocket 4.0 21:40:10 10° SSW 21:44:04 45° WNW 21:48:02 10° N
Cosmos 1461 4.0 21:40:19 10° S 21:44:18 29° ESE 21:48:23 10° NE
Iridium 81 4.1 21:44:48 23° SSE 21:46:03 44° E 21:48:50 10° NNE
MetOp-A 4.2 21:42:46 10° SSE 21:48:08 85° WSW 21:53:31 10° NNW
APEX 4.0 21:50:30 10° N 21:53:23 31° ENE 21:55:17 19° ESE
Cosmos 1745 Rocket 4.3 21:48:40 10° N 21:54:48 50° ENE 21:59:17 18° SSE
Cosmos 1844 Rocket 3.2 21:52:55 10° SSW 21:58:33 65° WNW 22:04:11 10° NNE
Cosmos 220 Rocket 4.0 21:54:34 11° S 21:58:33 54° ESE 22:02:40 10° NNE
COSMOS 2406 3.2 21:54:27 10° NNW 22:00:15 78° ENE 22:04:22 20° SSE
Cosmos 1844 3.9 21:59:10 10° SSW 22:04:51 76° WNW 22:10:39 10° NNE
SL-08 RB Rocket 4.0 22:01:15 14° S 22:05:15 67° W 22:09:55 10° NNW
ATLAS 3B R/B 2.6 22:01:42 10° NNW 22:08:22 76° NE 22:12:52 22° SE
KORONAS-FOTON 3.9 22:05:23 12° S 22:08:54 81° W 22:12:51 10° N
SPOT 5 3.2 22:06:25 21° SSE 22:09:44 63° ENE 22:14:58 10° N
Cosmos 1110 Rocket 4.2 22:04:36 10° NNW 22:09:45 68° WSW 22:13:32 18° S
SL-14 R/B 3.7 22:09:27 27° SE 22:11:02 42° E 22:14:46 10° NNE
USA 238 DEB 3.9 22:05:23 10° NW 22:12:32 79° WSW 22:17:40 21° SSE
USA 238 3.9 22:05:29 10° NW 22:12:38 80° WSW 22:17:45 21° SSE
Cosmos 1346 Rocket 4.2 22:11:49 10° NNW 22:15:29 34° W 22:19:03 11° SSW
ATLAS 5 CENTAUR R/B 2.3 22:14:23 26° SSE 22:15:45 32° ESE 22:19:58 10° NE
Lacrosse 5 4.0 22:12:24 10° W 22:16:51 30° NNW 22:21:18 10° NNE
Cosmos-2242 4.3 22:13:12 10° NNW 22:17:16 37° W 22:21:19 10° SSW
NOSS 2-2 (C) 4.0 22:20:39 30° ESE 22:20:51 30° ESE 22:24:29 10° NE
S3M 4.0 22:15:36 10° S 22:21:52 89° WNW 22:28:19 10° N
Cosmos 1331 Rocket 4.4 22:17:02 10° NNW 22:22:10 59° WSW 22:25:39 20° S
SPOT 1/Viking Rocket 3.5 22:20:08 25° SSE 22:23:14 80° ENE 22:28:24 10° N
H-2A R/B 2.9 22:18:45 13° S 22:23:21 47° W 22:28:34 10° NNW
NOSS 3-2 (A) 4.1 22:16:35 10° NNW 22:24:12 83° NE 22:29:42 24° SE
Cosmos 1709 Rocket 4.5 22:22:07 10° N 22:28:03 45° ENE 22:31:05 26° SE
Cosmos 2082 Rocket 3.4 22:24:51 10° N 22:29:56 32° ENE 22:33:00 19° ESE
Helios 1A 2.9 22:28:25 31° S 22:30:24 86° WSW 22:34:38 10° NNW
Cosmos 1833 Rocket 3.7 22:25:35 10° N 22:30:44 35° ENE 22:33:38 22° ESE
Cosmos 1626 2.8 22:31:40 35° ESE 22:32:05 36° E 22:35:32 10° NNE
Helios 1B rocket 2.4 22:28:03 10° NNE 22:32:07 62° E 22:33:40 35° SSE
Cosmos 1842 Rocket 3.8 22:32:40 10° NNW 22:36:59 65° W 22:39:11 28° S
CZ-2C R/B 3.4 22:33:20 10° NNE 22:38:13 34° E 22:39:35 30° SE
ATLAS 2AS CENTAUR R/B 4.2 22:32:00 10° WSW 22:39:31 46° NW 22:47:18 10° NNE
Cosmos 1340 3.6 22:37:12 10° NNW 22:40:49 42° W 22:42:33 25° SSW
Aureole 3 Rocket 4.4 22:37:55 26° SSE 22:41:55 50° E 22:47:24 10° NNE
Landsat 7 3.8 22:42:27 32° S 22:44:41 77° WSW 22:49:27 10° NNW
Spot 1 4.1 22:46:00 41° SSE 22:47:29 74° ENE 22:52:06 10° N
NOSS 3-2 (C) 4.0 22:42:26 10° NW 22:50:05 87° ENE 22:54:47 29° SE
ERS-1 Rocket 4.2 22:46:44 16° SSW 22:50:10 34° W 22:54:46 10° NNW
Cosmos 1302 Rocket 4.3 22:45:57 10° NNW 22:51:10 59° WSW 22:53:36 30° S
Cosmos 1455 3.4 22:55:43 10° NNE 22:59:01 28° ENE 22:59:05 28° ENE
Cosmos 883 Rocket 4.5 22:55:18 24° S 22:59:12 82° W 23:05:28 10° N
Cosmos 1300 3.3 22:56:45 10° NNW 23:00:27 49° W 23:01:28 38° SW
Terra 1.8 23:02:30 41° S 23:04:06 75° WSW 23:08:53 10° NNW
Cosmos 2315 Rocket 4.0 23:02:10 31° S 23:05:27 84° E 23:11:51 10° N
RESURS DK-1 2.5 23:06:04 54° ESE 23:06:04 54° ESE 23:10:05 10° NE
Cosmos 2221 2.8 23:02:41 10° NNW 23:06:57 58° W 23:08:10 41° SSW
Cosmos 1992 Rocket 4.1 23:01:56 10° NNW 23:07:08 66° ENE 23:08:42 44° SE
Okean 3 Rocket 3.4 23:06:52 53° S 23:07:51 83° E 23:12:15 10° N
ADEOS Rocket 4.4 23:06:04 10° NE 23:10:48 23° E 23:11:40 22° ESE
H-2A R/B 4.0 23:09:34 28° S 23:12:43 35° SE 23:46:46 10° E
NOSS 2-2 (E) 3.8 23:11:47 23° SW 23:14:04 61° NW 23:18:27 10° NNE
Meteor 1-29 3.8 23:11:50 10° N 23:15:05 44° WNW 23:15:43 39° WSW
COBE Rocket 4.2 23:10:12 10° NNE 23:15:12 52° E 23:16:06 46° SE
CENTAUR R/B 3.3 23:07:33 10° NNW 23:15:31 69° NE 23:20:13 30° SE
NOSS 3-4 (A) 3.9 23:10:27 10° SW 23:16:32 61° NW 23:22:55 10° NNE
NOSS 3-4 (C) 3.9 23:10:32 10° SW 23:16:36 61° NW 23:23:00 10° NNE
Cosmos 1328 Rocket 4.4 23:16:29 10° N 23:20:30 35° ENE 23:20:48 35° E
Cosmos 2184 Rocket 4.5 23:15:38 10° N 23:21:44 48° ENE 23:23:43 36° ESE
CZ-2C R/B 3.5 23:19:33 37° S 23:21:51 66° W 23:27:35 10° NNW
Cosmos 1328 4.2 23:21:27 46° SW 23:22:14 56° W 23:26:08 10° N
Meteor 1-11 4.2 23:20:56 44° S 23:22:52 78° E 23:28:40 10° NNE
SAR-Lupe-4 4.4 23:23:20 41° ENE 23:23:20 41° ENE 23:26:30 10° N
Cosmos 2278 Rocket 3.4 23:20:30 10° SW 23:25:49 40° WNW 23:31:10 10° N
Spot 4 3.8 23:33:05 60° SSE 23:33:57 81° ENE 23:38:50 10° N
ATLAS 3B CENTAUR R/B 3.9 23:22:58 10° WSW 23:35:02 32° S 23:35:02 32° S
Cosmos 407 Rocket 3.6 23:35:40 51° ESE 23:36:01 52° ESE 23:41:02 10° NNE
Cosmos 1441 Rocket 3.6 23:36:15 10° N 23:39:34 52° NE 23:39:34 52° NE
SL-19 R/B 4.2 23:42:22 10° NNE 23:47:41 54° E 23:48:12 52° ESE
Cosmos 1500 Rocket 4.3 23:50:19 40° ENE 23:50:19 40° ENE 23:53:58 10° NNE
Cosmos 1190 Rocket 3.9 23:49:20 64° SSE 23:49:58 73° ESE 23:55:11 10° NNE
Cosmos 405 Rocket 3.2 23:48:39 10° N 23:51:43 51° NE 23:51:43 51° NE
Cosmos 2369 Rocket 3.3 23:54:56 28° E 23:54:56 28° E 23:59:25 10° NE
